Weather in Bereza

Ukraine / Sumi District     51°43′49″N   33°51′58″E
В апреле 2022 года жителям России запретили посещать сайт meteo.paraplan.net по решению Генеральной прокуратуры. Аудитория сайта уменьшилась в 10 раз. Владельцы сайта не видят смысла в поддержке погодного сервера в таких условиях. Сайт будет закрыт в октябре.
temp.,
°C
wind,
m/s
gust,
m/s
humid.,
%
clouds,
%
prec.,
mm/h
press.,
hPa
HPBL,
m
30 september, fri
fri3000:00+11se4986100 0.0 1012164
03:00+11sse4128595 0.1 1012254
06:00+12sse4996100 0.4 1012239
09:00+14sse499353 0.5 1013351
12:00+18s457448 0.0 1013707
15:00+20ssw4470100 0.1 1013991
18:00+17s2283100 0.7 101427
21:00+17se2283100 0.7 101521
1 october, sat
sat100:00+15se3387100 0.1 101535
03:00+14s2296100 2.7 101517
06:00+14sw3496100 0.8 101567
09:00+16ssw468593 0.8 1014216
12:00+18ssw5979100 0.0 1014631
15:00+19wsw71070100 0.0 10131104
18:00+15wsw61168100 0.0 1014661
21:00+14wsw4975100 0.0 1014501
2 october, sun
sun200:00+13sw3682100 0.0 1013263
03:00+11sw229288 0.3 101246
06:00+12s1195100 0.9 101142
09:00+12ene2497100 2.4 1009195
12:00+14e4594100 0.4 1006433
15:00+15ne4791100 1.0 1003287
18:00+10n91497100 12.6 1001440
21:00+9nnw91593100 14.1 1001650
3 october, mon
mon300:00+9nw71292100 0.1 1001699
03:00+9nw71192100 0.1 1001705
06:00+8wnw51092100 0.1 1002644
09:00+8wnw6989100 0.1 1003700
12:00+10wnw6977100 0.1 1004984
15:00+9wnw6978100 0.3 1006858
18:00+9wsw4972100 0.1 1007280
21:00+9wsw51085100 0.3 1009324
4 october, tue
tue400:00+7sw499528 0.1 1010239
03:00+6sw499853 0.1 1011242
06:00+7ssw599885 0.1 1011325
09:00+9ssw5991100 0.2 1012519
12:00+9ssw5991100 0.8 1012560
15:00+11ssw71084100 1.6 1013890
18:00+9ssw489170 0.7 1014316
21:00+9s4895100 0.9 1015294